Regional Weather Roundup
Issued by NWS Midland/Odessa, TX

Home | Current Version | Previous Version | Text Only | Print | Product List | Glossary On
Versions: 1 2 3 4 5 6 7 8 9 10 11 12 13 14 15 16 17 18 19 20 21 22 23 24 25 26 27 28 29 30 31 32 33 34 35 36 37 38 39 40 41 42 43 44 45 46 47 48 49 50
000
ASUS44 KMAF 262110
RWRMAF
MIDLAND AREA WEATHER ROUNDUP
NATIONAL WEATHER SERVICE MIDLAND TX
400 PM CDT MON SEP 26 2016

...IN SOUTHWEST TEXAS AND SOUTHEAST NEW MEXICO...

CITY           SKY/WX    TMP DP  RH WIND       PRES   REMARKS
ALPINE         CLOUDY    49  49  99 NE12      30.39S
ANDREWS        CLOUDY    65  42  42 NE10      30.31F
ARTESIA        CLOUDY    66  45  45 MISG      30.33F
BIG SPRING       N/A     71  44  38 NE14      30.27F
CARLSBAD       LGT RAIN  61  51  70 S5        30.32F
DRYDEN         NOT AVBL
FORT STOCKTON  LGT RAIN  56  55  97 W10       30.30S
GUAD PASS      CLOUDY    52  44  74 NE37G44   30.33S
HOBBS          CLOUDY    64  39  39 E9        30.33F
MARFA          RAIN     N/A N/A N/A N20G29    30.32S
MIDLAND AIRPK  CLOUDY    69  35  28 NE15      30.28S
MIDLAND INTL   CLOUDY    69  39  33 NE16      30.27F
ODESSA         CLOUDY    68  40  35 NE10G21   30.29F
PECOS          RAIN      57  55  92 W8        30.30F
PRESIDIO       NOT AVBL
SEMINOLE       MOSUNNY   65  40  39 E9        30.32F
SNYDER           N/A     70  37  30 CALM      30.25F
WINK           CLOUDY    64  47  53 NE5       30.28F
$$
...OTHER STATIONS IN TEXAS...

CITY           SKY/WX    TMP DP  RH WIND       PRES   REMARKS
ABILENE        CLOUDY    71  52  50 NE14      30.20F
AMARILLO       SUNNY     73  34  23 E12G17    30.33S
AUSTIN         CLOUDY    72  67  84 N9        30.07S
BROWNSVILLE    CLOUDY    86  75  69 NE10      29.92F
CORPUS CHRISTI CLOUDY    82  75  79 E9        29.96F
DALLAS FTW     LGT RAIN  64  58  80 NE13      30.14F
DEL RIO        CLOUDY    71  65  81 NE7       30.09S
EL PASO        LGT RAIN  61  44  53 SE14G24   30.29F
HOUSTON INT    CLOUDY    84  72  67 N10       29.98F
LUBBOCK        CLOUDY    69  37  30 NE9G20    30.29F
SAN ANGELO     CLOUDY    70  54  56 NE16      30.18F
SAN ANTONIO    CLOUDY    75  67  76 N12       30.05F
WACO           CLOUDY    69  60  73 N17G23    30.11F
WICHITA FALLS  NOT AVBL
$$
...OTHER LOCATIONS IN NEW MEXICO...

CITY           SKY/WX    TMP DP  RH WIND       PRES   REMARKS
ALAMAGORDO     SUNNY     73  32  21 W6        30.26F
ALBUQUERQUE    CLOUDY    68  29  23 E16       30.36F
CANNON AFB     SUNNY     70  37  30 E12G17    30.33F
CLOVIS         CLOUDY    72  39  30 NE9       30.34F
HOLLOMAN AFB   MOSUNNY   75  34  22 W6        30.24F
ROSWELL        CLOUDY    73  38  27 SE9       30.31F
RUIDOSO        CLOUDY    57  32  38 SE15G22   30.45F
SANTA FE       CLOUDY    67  31  26 S13G21    30.40F
TRUTH OR CONSE CLOUDY    73  32  22 N9        30.28F
TUCUMCARI      SUNNY     76  34  21 S7        30.32F
$$




USA.gov is the U.S. government's official web portal to all federal, state and local government web resources and services.